This is the latest recevied weather packets stored in our database for station/object KD2PO-13. If no packets are shown the sender has not sent any weather packets the latest 10 day(s).
| Time | Temp. | Humidity | Pressure | Rain* | Wind** | Luminosity | Snow |
|---|---|---|---|---|---|---|---|
| 1778158180 | 6.11° C | 68% | 0 hPa | 0 mm | - | - | - |
| 1778157879 | 6.11° C | 68% | 0 hPa | 0 mm | - | - | - |
| 1778157579 | 6.67° C | 71% | 0 hPa | 0 mm | - | - | - |
| 1778156980 | 6.67° C | 67% | 0 hPa | 0 mm | - | - | - |
| 1778156680 | 6.67° C | 69% | 0 hPa | 0 mm | - | - | - |
| 1778156079 | 5.56° C | 70% | 0 hPa | 0 mm | - | - | - |
| 1778155779 | 5° C | 71% | 0 hPa | 0 mm | - | - | - |
| 1778155480 | 5° C | 74% | 0 hPa | 0 mm | - | - | - |
| 1778155480 | 5° C | 74% | 0 hPa | 0 mm | - | - | - |
| 1778155181 | 5° C | 73% | 0 hPa | 0 mm | - | - | - |
| 1778154880 | 5° C | 74% | 0 hPa | 0 mm | - | - | - |
| 1778154579 | 5° C | 79% | 0 hPa | 0 mm | - | - | - |
| 1778154280 | 5° C | 77% | 0 hPa | 0 mm | - | - | - |
| 1778153679 | 5.56° C | 84% | 0 hPa | 0 mm | - | - | - |
| 1778153080 | 4.44° C | 96% | 0 hPa | 0 mm | - | - | - |
| 1778152780 | 3.33° C | 97% | 0 hPa | 0 mm | - | - | - |
| 1778152479 | 2.78° C | 97% | 0 hPa | 0 mm | - | - | - |
| 1778152180 | 2.22° C | 97% | 0 hPa | 0 mm | - | - | - |
| 1778151880 | 1.67° C | 97% | 0 hPa | 0 mm | - | - | - |
| 1778151580 | 1.11° C | 97% | 0 hPa | 0 mm | - | - | - |
| 1778150979 | 0° C | 97% | 0 hPa | 0 mm | - | - | - |
| 1778150079 | - | - | 0 hPa | 0 mm | - | - | - |
| 1778149780 | - | - | 0 hPa | 0 mm | - | - | - |
| 1778149480 | - | - | 0 hPa | 0 mm | - | - | - |
| 1778149179 | - | - | 0 hPa | 0 mm | - | - | - |
* Rain latest hour (hover to see other rain measurements)
** Current wind speed in m/s (hover to see current wind gust speed)